Hourly Data Report for January 09, 2017

All times are specified in Local Standard Time (LST). Add 1 hour to adjust for Daylight Saving Time where and when it is observed.

ST LEONARD CS
NEW BRUNSWICK

47°09'28.050" N
67°49'55.014" W
245.00 m
810I001
71019
WIY

Download Data

Hourly Data (January 2017)
Hourly Data Report for January 9, 2017
Temp Definition
°C
Dew Point Temp Definition
°C
Rel Hum Definition
%
Wind Dir Definition
10's deg

Wind Spd Definition
km/h
Visibility Definition
km
Stn Press Definition
kPa
Hmdx Definition


Wind Chill Definition


Weather Definition


TIME
00:00 -22.2 -24.5 81 29 21   99.18   -34 LegendNANA
01:00 -22.6 -25.2 79 29 20   99.21   -34 LegendNANA
02:00 -23.8 -26.2 80 28 11   99.30   -32 LegendNANA
03:00 -23.8 -26.0 82 28 14   99.41   -33 LegendNANA
04:00 -24.4 -26.6 81 28 11   99.50   -33 LegendNANA
05:00 -24.6 -26.5 84 23 5   99.60   -29 LegendNANA
06:00 -25.5 -27.2 86 26 12   99.70   -35 LegendNANA
07:00 -25.4 -27.8 80 29 6   99.78   -31 LegendNANA
08:00 -25.2 -27.5 81 29 11   99.88   -34 LegendNANA
09:00 -26.5 -29.1 79 26 12   100.01   -36 LegendNANA
10:00 -24.3 -27.1 78 28 12   100.09   -33 LegendNANA
11:00 -22.2 -25.7 73 30 14   100.12   -31 LegendNANA
12:00 -20.9 -25.5 67 30 19   100.14   -31 LegendNANA
13:00 -19.9 -24.8 65 29 16   100.09   -29 LegendNANA
14:00 -18.6 -24.6 59 23 12   100.10   -26 LegendNANA
15:00 -17.8 -23.7 60 20 11   100.14   -25 LegendNANA
16:00 -17.6 -23.6 59 20 8   100.16   -23 LegendNANA
17:00 -19.5 -23.9 68 14 9   100.16   -26 LegendNANA
18:00 -20.3 -24.3 70 17 11   100.23   -28 LegendNANA
19:00 -20.6 -24.4 71 17 15   100.21   -30 LegendNANA
20:00 -19.8 -23.6 72 15 13   100.25   -28 LegendNANA
21:00 -18.7 -22.9 70 15 10   100.26   -26 LegendNANA
22:00 -18.1 -22.5 68 17 12   100.29   -26 LegendNANA
23:00 -17.4 -21.9 68 16 13   100.28   -25 LegendNANA

Notes on Data Quality.

Legend

  • E = Estimated
  • M = Missing
  • NA = Not Available
  • ‡ = Partner data that is not subject to review by the National Climate Archives
Date modified: